Location: Unspecified
(0.0000°N, 0.0000°E)
Time: 17:32:32
(UTC+00:00)

Tiangong 2 - Visible Passes

Search period start: 21 March 2019 00:00
Search period end: 31 March 2019 00:00
Orbit: 379 x 390 km, 42.8° (Epoch: 21 March)

Date Brightness Start Highest point End Pass type
(mag) Time Alt. Az. Time Alt. Az. Time Alt. Az.
22 Mar 3.6 19:31:12 10° SSW 19:31:45 13° S 19:31:45 13° S visible
23 Mar 3.4 18:33:37 10° SSE 18:34:27 11° SE 18:35:17 10° ESE visible
24 Mar 0.9 19:08:29 10° SW 19:11:37 87° SE 19:12:39 39° NE visible
25 Mar 4.2 19:47:39 10° WNW 19:48:45 11° NW 19:49:24 11° NNW visible
26 Mar 4.0 05:40:09 10° N 05:42:21 17° NE 05:44:33 10° E visible
26 Mar 3.0 18:46:29 10° WSW 18:49:16 29° NW 18:52:03 10° NNE visible
28 Mar 2.1 05:16:56 10° NNW 05:19:59 47° NE 05:23:04 10° ESE visible
28 Mar 4.3 18:25:47 10° WNW 18:26:55 11° NW 18:28:02 10° NNW visible
29 Mar 3.8 04:20:32 17° NE 04:20:32 17° NE 04:22:40 10° E visible
30 Mar 1.2 04:57:16 49° WSW 04:57:34 51° SW 05:00:40 10° SSE visible
